Location: Melizzano
(41.1500°N, 14.5000°E)
Time: 08:26:44
(UTC+00:00)

ALOS 2 - Pass Details

Date: 11 May 2021
Orbit: 630 x 632 km, 97.9° (Epoch: 20 June)

Event Time Altitude Azimuth Distance (km) Brightness Sun altitude
Exits shadow 22:41:29 36° 338° (NNW) 1,000 4.0 -30.6°
Drops below altitude 10° 22:44:09 10° 345° (NNW) 2,022 6.1 -30.6°
Sets 22:46:21 0° 346° (NNW) 2,934 7.2 -30.7°
